Location: Engomer
(42.9477°N, 1.0591°E)
Time: 19:30:12
(UTC+00:00)

Daily predictions for brighter satellites

Satellite Brightness Start Highest point End
(mag) Time Altitude Azimuth Time Altitude Azimuth Time Altitude Azimuth
BREEZE-M DEB (TANK) 2.9 20:02:57 10° WSW 20:05:56 89° NNW 20:14:45 10° ENE
SL-16 R/B 2.7 20:07:14 10° NNW 20:12:49 61° WSW 20:18:22 10° S
COSMOS 2455 4.3 20:09:44 10° SE 20:13:16 16° ESE 20:16:49 10° ENE
Cosmos 1346 Rocket 3.4 20:13:01 10° N 20:16:38 38° ENE 20:20:12 10° SE
SeaSat 1 4.2 20:14:36 10° E 20:18:13 21° NE 20:21:49 10° N
CSL-04 Rocket 4.3 20:15:26 10° S 20:20:38 56° W 20:25:56 10° NNW
Ariane Rocket 4.2 20:20:55 10° ESE 20:25:10 28° ENE 20:29:27 10° N
IRS-1C Rocket 4.4 20:20:40 10° SE 20:25:43 51° ENE 20:30:49 10° N
Cosmos 1707 Rocket 3.8 20:22:01 10° S 20:26:19 52° E 20:30:37 10° NNE
Okean 3 4.2 20:23:05 10° SSE 20:26:49 33° E 20:30:36 10° NNE
Cosmos 839 Rocket 4.5 20:20:35 10° NNW 20:27:15 53° NE 20:33:11 10° SE
SL-14 R/B 3.1 20:24:22 10° S 20:28:07 69° E 20:31:55 10° NNE
Cosmos 2333 Rocket 2.3 20:24:25 10° NNW 20:30:13 85° ENE 20:36:00 10° SSE
SL-4 R/B 3.3 20:27:26 10° NW 20:30:53 32° NNE 20:34:32 10° E
Cosmos 2237 Rocket 4.4 20:29:50 10° NNE 20:32:13 13° NE 20:34:35 10° ENE
Cosmos 1655 Rocket 4.1 20:26:46 10° S 20:33:07 72° E 20:39:29 10° NNE
BlueWalker 3 2.3 20:30:26 10° WSW 20:34:09 67° NW 20:37:54 10° NE
Cosmos 968 Rocket 3.5 20:29:39 10° SSW 20:34:48 87° WNW 20:40:03 10° NNE
Meteor 1-12 Rocket 4.4 20:28:53 10° N 20:34:57 87° E 20:40:55 10° S
CZ-4C R/B 3.3 20:32:36 10° NNE 20:36:45 78° ESE 20:40:46 10° S
Cosmos 1833 4.3 20:32:44 10° SSW 20:38:22 84° WNW 20:44:01 10° NNE
Cosmos 1733 Rocket 3.1 20:39:17 10° N 20:43:42 71° E 20:47:58 11° SSE
Resurs 01 Rocket 3.7 20:41:07 10° SSW 20:44:43 24° W 20:48:19 10° NW
Cosmos 1356 Rocket 3.6 20:41:02 10° SSW 20:45:13 77° W 20:49:26 10° N
Cosmos 807 3.9 20:47:17 10° S 20:50:20 77° E 20:53:13 10° N
Cosmos 2322 Rocket 3.0 20:45:19 10° NW 20:50:45 47° WSW 20:56:10 10° S
USA 234 3.6 20:45:22 10° ENE 20:51:26 39° SE 20:57:26 10° SSW
Cosmos 2333 4.3 20:46:25 10° NNW 20:52:13 84° WSW 20:57:23 13° SSE
Cosmos 2297 Rocket 3.7 20:53:48 14° SE 20:55:57 17° E 20:59:31 10° ENE
Cosmos 1758 3.9 20:54:43 10° NNW 20:58:34 54° W 21:02:25 10° S
ARGOS Delta rocket 4.1 20:55:08 10° S 20:59:28 58° W 21:03:49 10° NNW
Cosmos 1300 3.4 20:59:09 10° NNW 21:02:34 46° W 21:05:58 10° SSW
MOS 1 Rocket 3.7 20:58:40 15° SSE 21:03:01 63° ENE 21:08:08 10° N
Cosmos 1908 Rocket 4.3 21:00:33 10° N 21:04:34 36° ENE 21:07:02 20° SE
Cosmos 2219 Rocket 2.2 21:01:36 10° NNW 21:07:19 87° WSW 21:11:43 17° SSE
ERS-1 Rocket 3.0 21:03:32 14° SSE 21:07:55 85° W 21:12:58 10° NNW
Cosmos 1814 Rocket 4.2 21:02:51 10° NNW 21:08:10 70° WSW 21:12:36 15° S
Cosmos 371 Rocket 4.5 21:06:32 19° SE 21:08:27 24° E 21:12:17 10° NE
Cosmos 2315 Rocket 4.4 21:03:14 10° NNW 21:09:33 66° W 21:15:50 10° S
Terra 1.8 21:07:31 16° SSE 21:11:15 88° ENE 21:15:59 10° NNW
Cosmos 1570 Rocket 4.4 21:08:17 10° NNW 21:13:33 55° ENE 21:17:02 21° SE
SPOT 5 3.6 21:10:09 10° S 21:14:15 42° W 21:18:31 10° NNW
Iridium 51 4.4 21:15:40 18° S 21:18:48 74° E 21:22:54 10° N
Meteor 1-4 Rocket 3.1 21:16:16 10° SSW 21:19:08 44° WNW 21:22:03 10° N
Aureole 3 4.3 21:18:50 10° SSW 21:23:09 61° WNW 21:28:34 10° N
GP-B 4.2 21:22:05 10° NNE 21:25:53 28° E 21:27:23 23° ESE
Landsat 4 3.3 21:24:23 29° SSE 21:26:02 86° ENE 21:29:28 10° NNW
Cosmos 2084 Rocket 3.9 21:25:43 21° S 21:28:05 39° ESE 21:32:01 10° NE
NOSS 0 Rocket 4.4 21:25:22 10° NNW 21:31:27 51° ENE 21:35:24 22° SE
CZ-4C R/B 1.7 21:28:25 10° SSW 21:32:38 63° ESE 21:37:52 10° NE
SJ 16-02 3.4 21:29:14 10° WSW 21:32:59 28° WNW 21:36:45 10° N
COSMOS 2428 2.8 21:28:06 10° NNW 21:33:49 73° ENE 21:37:11 26° SE
SPOT 3 Rocket 3.6 21:30:22 21° S 21:33:52 79° WSW 21:39:05 10° NNW
Cosmos 1953 2.1 21:30:23 10° N 21:34:12 87° WSW 21:36:00 30° S
Cosmos 1455 1.9 21:32:19 10° N 21:35:51 90° WSW 21:37:14 34° S
Cosmos 2360 Rocket 3.9 21:31:29 10° NW 21:36:05 26° WSW 21:40:39 10° SSW
Cosmos 1745 Rocket 4.3 21:34:05 23° SSE 21:37:57 52° E 21:44:06 10° NNE
BREEZE-M DEB (TANK) 4.4 21:35:52 10° SW 21:39:50 19° ENE 21:40:55 10° ENE
Spot 2 Rocket 3.9 21:34:54 19° S 21:38:32 60° W 21:43:34 10° NNW
Cosmos 304 Rocket 4.3 21:38:33 29° SSE 21:40:15 39° ESE 21:44:40 10° NE
ATLAS 2AS CENTAUR R/B 3.8 21:34:45 10° NW 21:40:34 32° WSW 21:45:21 14° SSW
Cosmos 1703 Rocket 3.6 21:41:35 22° S 21:44:29 85° W 21:48:57 10° N
Nadezhda 1 Rocket 4.1 21:38:56 10° N 21:45:07 61° E 21:48:28 27° SSE
Cosmos 1242 Rocket 2.5 21:44:43 32° SW 21:45:37 49° WNW 21:48:17 10° N
Okean 1-7 3.8 21:42:50 12° SSW 21:46:41 49° WNW 21:50:53 10° N
Cosmos 1315 Rocket 4.1 21:44:33 10° SW 21:48:16 38° WNW 21:52:02 10° N
SL-23 DEB 4.3 21:48:12 29° S 21:49:48 46° SE 21:55:10 10° ENE
SeaSat 1 2.6 21:52:49 30° S 21:55:13 65° WSW 22:00:07 10° NNW
Cosmos 2208 Rocket 3.9 21:50:55 10° NNW 21:56:08 86° WSW 21:58:30 33° SSE
H-2A R/B 4.5 21:56:48 15° E 21:58:15 18° ENE 22:01:03 10° NNE
COSMOS 2455 2.9 21:52:22 10° SSW 21:58:24 82° WNW 22:04:29 10° NNE
Landsat 5 3.6 21:55:38 10° N 21:59:47 73° WNW 22:02:11 25° SSW
Cosmos 1408 2.1 22:02:06 64° ENE 22:02:06 64° ENE 22:04:55 10° NNE
Ariane Rocket 4.1 22:00:37 18° SSW 22:03:55 38° W 22:08:39 10° NNW
CZ-2C R/B 4.1 22:00:04 10° NNE 22:04:17 42° E 22:05:09 38° SE
Cosmos 158 Rocket 4.0 21:59:40 10° NNW 22:04:55 76° WSW 22:07:05 35° S
Cosmos 405 Rocket 4.1 22:06:20 10° NNE 22:09:29 25° ENE 22:09:55 24° E
SL-4 R/B 1.9 22:05:56 10° WNW 22:09:50 66° SW 22:10:36 53° SSE
Cosmos 1486 Rocket 4.1 22:08:49 19° SSW 22:12:32 75° WNW 22:17:46 10° NNE
CENTAUR R/B 2.7 22:11:56 35° SE 22:13:15 40° ESE 22:19:17 10° NE
Meteor 2-5 Rocket 4.1 22:11:12 34° SE 22:13:21 50° E 22:18:56 10° NNE
SL-16 R/B 4.0 22:10:19 10° N 22:14:42 22° NE 22:18:25 12° E
Cosmos 2237 Rocket 2.3 22:11:47 10° NNW 22:17:26 65° ENE 22:19:45 35° SE
Cosmos 2227 Rocket 2.6 22:18:49 37° SE 22:20:14 45° ESE 22:25:36 10° NE
Cosmos 1980 3.6 22:26:05 10° NNW 22:31:47 89° ENE 22:33:48 42° SSE
Cosmos 2242 Rocket 3.8 22:31:20 40° SSW 22:32:52 71° W 22:37:27 10° N
Cosmos 1354 Rocket 3.9 22:31:06 40° S 22:33:04 79° ESE 22:38:22 10° NNE
USA 234 3.6 22:28:10 10° NE 22:34:39 66° NW 22:41:05 10° WSW
Cosmos 1709 Rocket 4.0 22:33:28 32° SSW 22:36:42 83° W 22:43:05 10° N
Cosmos 2297 Rocket 2.4 22:35:31 21° SW 22:39:20 68° WNW 22:44:59 10° NNE
Cosmos 990 Rocket 4.3 22:45:54 42° ESE 22:46:25 43° ESE 22:51:16 10° NNE
Cosmos 2219 3.6 22:51:46 42° SE 22:52:32 44° ESE 22:57:51 10° NE
USA 281 3.2 22:50:46 38° SE 22:53:32 82° ENE 23:00:09 10° NNW
Meteor 1-24 Rocket 3.8 22:52:46 38° SSW 22:55:01 75° W 23:00:35 10° N
Cosmos 773 Rocket 4.4 22:50:54 10° NNW 22:55:53 50° WSW 22:57:07 41° SW
Cosmos 1703 3.9 22:55:32 41° W 22:55:57 43° WNW 22:59:29 10° N
ARIANE 5 R/B 2.8 22:57:21 53° SW 22:57:57 59° W 23:02:16 10° NNW
PSLV R/B 4.0 22:54:46 10° N 22:58:43 67° WNW 22:59:12 60° WSW
Cosmos 1025 Rocket 4.4 23:00:15 26° E 23:00:15 26° E 23:03:43 10° NNE
Cosmos 2263 Rocket 2.8 23:01:07 36° ESE 23:01:33 37° ESE 23:06:36 10° NE
Cosmos 2184 Rocket 4.3 22:59:56 40° SE 23:01:50 53° E 23:08:01 10° NNE
Cosmos 1378 Rocket 3.5 23:10:40 68° SW 23:11:07 78° W 23:15:33 10° N
Cosmos 1674 Rocket 3.3 23:14:09 77° SSW 23:14:28 86° WNW 23:18:48 10° N
Spot 2 4.5 23:15:35 54° SE 23:16:37 71° ENE 23:21:35 10° N
Cosmos 292 Rocket 4.1 23:17:32 49° ESE 23:17:38 49° ESE 23:22:16 10° NNE
NOSS 3-2 (A) 3.0 23:18:38 56° SSW 23:19:45 77° ESE 23:25:43 10° NE
Cosmos 2154 Rocket 4.2 23:18:32 44° SE 23:20:16 59° E 23:26:27 10° NNE
CZ-4C R/B 4.3 23:17:46 10° W 23:21:37 23° NNW 23:26:12 10° NNE
Cosmos 1825 2.5 23:23:13 54° NNW 23:23:13 54° NNW 23:26:01 10° N
NOSS 3-2 (C) 3.6 23:30:23 40° ESE 23:30:25 40° ESE 23:35:50 10° NE
PSLV R/B 3.7 23:26:53 10° NNE 23:30:49 56° E 23:30:49 56° E
Cosmos 2151 Rocket 3.8 23:27:17 10° NNW 23:31:34 54° W 23:31:48 53° WSW
H-2A R/B 3.1 23:32:47 45° WSW 23:32:50 45° W 23:36:53 10° NNW
Cosmos 1538 Rocket 3.9 23:28:37 10° NNW 23:33:53 86° ENE 23:34:51 60° SSE
Cosmos 1818 4.2 23:28:50 10° NNW 23:34:13 52° NE 23:36:27 32° ESE
Cosmos 1892 3.5 23:34:58 41° WNW 23:34:58 41° WNW 23:37:59 10° N
Meteor 1-21 Rocket 4.5 23:34:06 48° SE 23:35:15 56° E 23:40:46 10° NNE
Okean 2 Rocket 3.4 23:32:09 10° NNW 23:36:32 53° W 23:36:50 52° WSW
Cosmos 1328 3.8 23:41:31 71° NNW 23:41:31 71° NNW 23:45:06 10° N
ALOS 2 2.7 23:42:15 59° WSW 23:42:21 60° W 23:46:42 10° NNW
Meteor 2-11 Rocket 4.3 23:45:26 52° S 23:47:02 84° E 23:53:10 10° N
Cosmos 1610 Rocket 4.5 23:46:18 49° SSE 23:48:07 76° E 23:54:29 10° N
Aureole 1 Rocket 2.8 23:48:40 81° WNW 23:48:40 81° WNW 23:53:24 10° NNE
Cosmos 1937 Rocket 3.7 23:48:31 51° SE 23:49:02 53° ESE 23:54:07 10° NNE
